Weather in Svetlyy

Russia / Mari El Republic     56°33′05″N   47°50′16″E
temp.,
°C
wind,
m/s
gust,
m/s
humid.,
%
clouds,
%
prec.,
mm/h
press.,
hPa
HPBL,
m
22 may, sun
sun2200:000nnw279636 0.0 1006187
03:00−2nw279820 0.0 1006171
06:00+1nnw358668 0.0 1004499
09:00+3nnw3466100 0.1 10031195
12:00+4nnw3460100 0.1 10031397
15:00+5nw3454100 0.2 10021436
18:00+5nnw3456100 0.1 10011255
21:00+1nw248050 0.2 100187
23 may, mon
mon2300:00−2nw259510 0.0 100099
03:00−2wnw249711 0.0 100091
06:00+1w358014 0.0 999373
09:00+5w4559100 0.1 9981468
12:00+5w4661100 0.1 9981342
15:00+6wsw4658100 0.4 9991530
18:00+5wsw4673100 0.3 9991029
21:00+2sw3893100 0.6 999391
24 may, tue
tue2400:00+1sw4998100 0.3 999553
03:00+1wsw3798100 2.6 1000301
06:00+1ssw2598100 0.1 1001369
09:00+3s3495100 0.4 1002484
12:00+3sw2499100 0.4 1003336
15:00+6wsw347497 0.8 10041242
18:00+6w2481100 0.5 1006264
21:00+1wnw22925 0.6 100720
25 may, wed
wed2500:00−1w22955 0.0 100821
03:00−2w229813 0.0 100936
06:00+2w249269 0.0 1009284
09:00+5w358098 0.0 1010612
12:00+7wsw346385 0.1 10101091
15:00+9w356792 0.5 10101334
18:00+7w368886 1.4 1010568
21:00+3wnw3697100 2.7 1011634
26 may, thu
thu2600:00+3w3995100 0.0 1010399
03:00+3w3895100 0.2 1010595
06:00+4w379399 0.0 1010478
09:00+6w378396 0.1 1009896
12:00+8wsw4682100 0.7 10091029
15:00+8wsw4685100 1.9 10071204
18:00+6ssw2598100 2.3 1006246
21:00+6sw2399100 4.0 1004108